Retour au catalogue

FENGYUN 1C DEB

ActifPO
NORAD 31297·DEBRIS·🇨🇳 China

Lancé May 10, 1999 depuis Taiyuan Satellite Launch Center

Loading…

Prochains Passages (prochaines 24 heures)

TLE

FraisSource: Space-Track

Époque: Sep 14, 2026, 06:21 UTC

1 31297U 99025BPF 26257.26478130  .00000578  00000-0  12267-3 0  9991
2 31297  98.9722  59.9351 0137183   5.5827 116.6361 14.57948903 33148

Suivez FENGYUN 1C DEB en temps réel avec AllMySat

Download on the App Store